Regional Weather Roundup
Issued by NWS

Home | Current Version | Previous Version | Text Only | Print | Product List | Glossary Off
Versions: 1 2 3 4 5 6 7 8 9 10 11 12 13 14 15 16 17 18 19 20 21 22 23 24 25 26 27

000
ASUS45 KCYS 170710
RWRWY

WYOMING REGIONAL WEATHER ROUNDUP
NATIONAL WEATHER SERVICE CHEYENNE WY
100 AM MDT THU APR 17 2014

NOTE:  "FAIR" INDICATES FEW OR NO CLOUDS BELOW 12,000 FEET
WITH NO SIGNIFICANT WEATHER AND/OR OBSTRUCTIONS TO VISIBILITY.

WYZ001-170800-
YELLOWSTONE NATIONAL PARK

CITY           SKY/WX    TMP DP  RH WIND       PRES   REMARKS
LK YELLOWSTONE   N/A     24  17  74 CALM      30.03F
W YELLOWSTONE  NOT AVBL

$$
WYZ002>013-054>058-071-098>099-170800-
NORTHERN WYOMING

CITY           SKY/WX    TMP DP  RH WIND       PRES   REMARKS
JACKSON        PTCLDY    30  19  64 CALM      30.03S
CODY           CLEAR     30  27  86 CALM      30.01F
GREYBULL       PTCLDY    34  30  85 VRB3      30.02R
WORLAND        CLEAR     37  28  70 S6        30.02S WCI  32
SHERIDAN       PTCLDY    32  30  92 NE5       30.04F WCI  27
BUFFALO        FOG       30  27  88 SE3       30.05F VSB 3/4
GILLETTE       CLOUDY    34  31  88 SW6       30.08R WCI  29
HULETT         CLOUDY    30  28  93 CALM      30.10
NEWCASTLE      CLOUDY    32  30  93 SE7       30.13  WCI  26

$$
WYZ014>020-022>026-101>103-170800-
CENTRAL WYOMING

CITY           SKY/WX    TMP DP  RH WIND       PRES   REMARKS
BIG PINEY      CLEAR     23  16  74 NW5       30.06S WCI  17
PINEDALE       MOSUNNY   25  23  93 CALM      30.06S
DUBOIS         FAIR      27  16  63 NW10      30.02S WCI  17
LANDER         CLEAR     34  22  61 CALM      30.03R
RIVERTON       CLEAR     30  26  85 N7        30.04R WCI  23
CASPER         CLOUDY    33  31  92 E7        30.07S WCI  27
DOUGLAS        FLURRIES  33  31  92 SE9       30.10S WCI  25

$$
WYZ021-027>030-104>119-170800-
SOUTHERN WYOMING

CITY           SKY/WX    TMP DP  RH WIND       PRES   REMARKS
EVANSTON       CLEAR     34  14  43 S3        30.07R
KEMMERER       SUNNY     32  18  55 CALM      30.06
FORT BRIDGER   FAIR      32  14  46 SW10      30.09S WCI  24
ROCK SPRINGS   PTCLDY    35  10  35 W5        30.06R WCI  31
DIXON          CLOUDY    32  20  60 E6        30.06S WCI  27
RAWLINS        PTCLDY    29  24  82 NE14      30.04R WCI  18
SARATOGA       CLOUDY    28  18  64 S7        30.03S WCI  21
LARAMIE        PTCLDY    30  26  85 SE17      30.03R WCI  18
CHEYENNE       CLOUDY    32  29  88 SE10      30.08S WCI  24
TORRINGTON     LGT SNOW  33  31  92 E12       30.13R FOG     WCI  24
PINE BLUFFS    CLOUDY    34  30  86 SE10      30.12S WCI  26

$$



USA.gov is the U.S. government's official web portal to all federal, state and local government web resources and services.